Alamogordo, NM

10:46 PM MST on November 16, 2019 (GMT -0700)
Alamogordo-White Sands Regional

Weather History for KALM - September, 2019

Change the Weather History Date:

Thursday, September 26, 2019

  Actual Average Record
Temperature  
Mean Temperature 74 °F -  
Max Temperature 89 °F 83 °F 98 °F (2005)
Min Temperature 59 °F 54 °F 37 °F (2000)
Cooling Degree Days 9    
Growing Degree Days 24 (Base 50)    
Moisture  
Dew Point 46 °F    
Average Humidity 40    
Maximum Humidity 72    
Minimum Humidity 14    
Precipitation  
Precipitation 0.00 in - - ()
Sea Level Pressure  
Sea Level Pressure 30.05 in    
Wind  
Wind Speed 4 mph ()    
Max Wind Speed 15 mph    
Max Gust Speed 18 mph    
Visibility 10.0 miles    
Events      
Averages and records for this station are not official NWS values.
T = Trace of Precipitation, MM = Missing Value Source: Averaged Metar Reports

Daily Weather History Graph

Daily Weather History Graph

Search for Another Location

Airport or City:

Astronomy

Sep. 26, 2019 Rise Set
Actual Time 6:54 AM MDT 6:55 PM MDT
Civil Twilight 6:30 AM MDT 7:20 PM MDT
Nautical Twilight 6:01 AM MDT 7:48 PM MDT
Astronomical Twilight 5:32 AM MDT 8:17 PM MDT
Moon 4:17 AM MDT (9/26) 5:59 PM MDT (9/26)
Length of Visible Light 12h 49m
Length of Day
12h 00m
Waning Crescent, 6% of the Moon is Illuminated
Sep 26
Waning Crescent
Sep 28
New
Oct 5
First Quarter
Oct 13
Full
Oct 21
Last Quarter

Hourly Weather History & Observations

Time (MDT) Temp. Dew Point Humidity Pressure Visibility Wind Dir Wind Speed Gust Speed Precip Events Conditions
12:15 AM 66.2 °F 50.0 °F 56% 30.05 in 10.0 mi East 3.5 mph - N/A   Clear
12:35 AM 66.2 °F 48.2 °F 52% 30.06 in 10.0 mi Calm Calm - N/A   Clear
12:55 AM 68.0 °F 48.2 °F 49% 30.05 in 10.0 mi Calm Calm - N/A   Clear
1:15 AM 68.0 °F 50.0 °F 52% 30.06 in 10.0 mi NNE 4.6 mph - N/A   Clear
1:35 AM 66.2 °F 50.0 °F 56% 30.06 in 10.0 mi ESE 4.6 mph - N/A   Clear
1:55 AM 64.4 °F 48.2 °F 56% 30.06 in 10.0 mi SE 3.5 mph - N/A   Clear
2:15 AM 64.4 °F 50.0 °F 59% 30.05 in 10.0 mi ESE 3.5 mph - N/A   Clear
2:35 AM 66.2 °F 48.2 °F 52% 30.05 in 10.0 mi SE 4.6 mph - N/A   Clear
2:55 AM 64.4 °F 50.0 °F 59% 30.05 in 10.0 mi SSE 4.6 mph - N/A   Clear
3:15 AM 64.4 °F 48.2 °F 56% 30.05 in 10.0 mi Calm Calm - N/A   Clear
3:35 AM 64.4 °F 48.2 °F 56% 30.05 in 10.0 mi Calm Calm - N/A   Clear
3:55 AM 62.6 °F 48.2 °F 59% 30.05 in 10.0 mi SE 3.5 mph - N/A   Clear
4:15 AM 62.6 °F 50.0 °F 63% 30.06 in 10.0 mi East 5.8 mph - N/A   Clear
4:35 AM 62.6 °F 50.0 °F 63% 30.05 in 10.0 mi East 4.6 mph - N/A   Clear
4:55 AM 60.8 °F 50.0 °F 68% 30.06 in 10.0 mi Calm Calm - N/A   Clear
5:15 AM 64.4 °F 50.0 °F 59% 30.06 in 10.0 mi Calm Calm - N/A   Clear
5:35 AM 66.2 °F 50.0 °F 56% 30.06 in 10.0 mi Calm Calm - N/A   Clear
5:55 AM 62.6 °F 50.0 °F 63% 30.06 in 10.0 mi SE 5.8 mph - N/A   Clear
6:15 AM 62.6 °F 50.0 °F 63% 30.07 in 10.0 mi SE 3.5 mph - N/A   Clear
6:35 AM 62.6 °F 50.0 °F 63% 30.07 in 10.0 mi SSE 3.5 mph - N/A   Clear
6:55 AM 62.6 °F 50.0 °F 63% 30.08 in 10.0 mi Calm Calm - N/A   Clear
7:35 AM 59.0 °F 50.0 °F 72% 30.09 in 10.0 mi East 3.5 mph - N/A   Clear
7:55 AM 64.4 °F 53.6 °F 68% 30.10 in 10.0 mi Calm Calm - N/A   Clear
8:15 AM 68.0 °F 53.6 °F 60% 30.11 in 10.0 mi Calm Calm - N/A   Clear
8:35 AM 69.8 °F 55.4 °F 60% 30.11 in 10.0 mi South 5.8 mph - N/A   Clear
8:55 AM 71.6 °F 55.4 °F 57% 30.12 in 10.0 mi Calm Calm - N/A   Clear
9:15 AM 73.4 °F 55.4 °F 53% 30.12 in 10.0 mi Calm Calm - N/A   Clear
9:35 AM 75.2 °F 53.6 °F 47% 30.12 in 10.0 mi Calm Calm - N/A   Clear
9:55 AM 77.0 °F 53.6 °F 44% 30.12 in 10.0 mi North - - N/A   Clear
10:15 AM 80.6 °F 50.0 °F 34% 30.12 in 10.0 mi North 3.5 mph - N/A   Clear
10:35 AM 82.4 °F 48.2 °F 30% 30.12 in 10.0 mi North 8.1 mph - N/A   Clear
10:55 AM 82.4 °F 48.2 °F 30% 30.12 in 10.0 mi North 6.9 mph - N/A   Clear
11:15 AM 82.4 °F 46.4 °F 28% 30.11 in 10.0 mi NW 11.5 mph 16.1 mph N/A   Clear
11:35 AM 84.2 °F 46.4 °F 27% 30.11 in 10.0 mi West 5.8 mph - N/A   Clear
11:55 AM 84.2 °F 46.4 °F 27% 30.10 in 10.0 mi NNW 9.2 mph - N/A   Clear
12:15 PM 84.2 °F 46.4 °F 27% 30.09 in 10.0 mi NW 11.5 mph 16.1 mph N/A   Clear
12:35 PM 84.2 °F 44.6 °F 25% 30.09 in 10.0 mi WNW 11.5 mph - N/A   Clear
12:55 PM 84.2 °F 44.6 °F 25% 30.08 in 10.0 mi SW 3.5 mph - N/A   Clear
1:15 PM 86.0 °F 44.6 °F 23% 30.07 in 10.0 mi West 8.1 mph - N/A   Clear
1:35 PM 86.0 °F 44.6 °F 23% 30.06 in 10.0 mi NNW 3.5 mph 16.1 mph N/A   Clear
1:55 PM 86.0 °F 44.6 °F 23% 30.05 in 10.0 mi WNW 6.9 mph - N/A   Clear
2:15 PM 86.0 °F 44.6 °F 23% 30.04 in 10.0 mi WNW 9.2 mph - N/A   Clear
2:55 PM 86.0 °F 44.6 °F 23% 30.01 in 10.0 mi West 5.8 mph - N/A   Clear
3:35 PM 87.8 °F 41.0 °F 19% 29.99 in 10.0 mi NNW 3.5 mph - N/A   Clear
3:55 PM 89.6 °F 41.0 °F 18% 29.99 in 10.0 mi West 4.6 mph - N/A   Clear
4:15 PM 89.6 °F 41.0 °F 18% 29.98 in 10.0 mi West 12.7 mph - N/A   Clear
4:35 PM 89.6 °F 39.2 °F 17% 29.98 in 10.0 mi WSW 3.5 mph - N/A   Clear
4:55 PM 89.6 °F 37.4 °F 16% 29.97 in 10.0 mi SSW 8.1 mph - N/A   Clear
5:15 PM 89.6 °F 33.8 °F 14% 29.97 in 10.0 mi WSW 12.7 mph 18.4 mph N/A   Clear
5:35 PM 89.6 °F 33.8 °F 14% 29.97 in 10.0 mi WSW 10.4 mph - N/A   Clear
5:55 PM 87.8 °F 33.8 °F 15% 29.97 in 10.0 mi WSW 15.0 mph - N/A   Clear
6:15 PM 86.0 °F 35.6 °F 17% 29.97 in 10.0 mi WSW 12.7 mph - N/A   Clear
6:35 PM 84.2 °F 37.4 °F 19% 29.98 in 10.0 mi WSW 9.2 mph - N/A   Clear
6:55 PM 82.4 °F 37.4 °F 20% 29.98 in 10.0 mi WSW 10.4 mph - N/A   Clear
7:15 PM 80.6 °F 39.2 °F 23% 29.98 in 10.0 mi WSW 8.1 mph - N/A   Clear
7:35 PM 80.6 °F 39.2 °F 23% 29.99 in 10.0 mi WSW 8.1 mph - N/A   Clear
7:55 PM 77.0 °F 39.2 °F 26% 29.99 in 10.0 mi WSW 6.9 mph - N/A   Clear
8:15 PM 75.2 °F 41.0 °F 29% 30.00 in 10.0 mi SSW 3.5 mph - N/A   Clear
8:35 PM 73.4 °F 41.0 °F 31% 30.00 in 10.0 mi North - - N/A   Clear
8:55 PM 71.6 °F 41.0 °F 33% 30.01 in 10.0 mi SE 3.5 mph - N/A   Clear
9:15 PM 71.6 °F 41.0 °F 33% 30.01 in 10.0 mi SW 3.5 mph - N/A   Clear
9:35 PM 75.2 °F 44.6 °F 34% 30.02 in 10.0 mi SW 6.9 mph - N/A   Clear
9:55 PM 71.6 °F 44.6 °F 38% 30.02 in 10.0 mi South 4.6 mph - N/A   Clear
10:15 PM 69.8 °F 44.6 °F 40% 30.03 in 10.0 mi SSE 5.8 mph - N/A   Clear
10:35 PM 71.6 °F 44.6 °F 38% 30.03 in 10.0 mi South 6.9 mph - N/A   Clear
10:55 PM 69.8 °F 44.6 °F 40% 30.03 in 10.0 mi SSW 5.8 mph - N/A   Clear
11:15 PM 68.0 °F 44.6 °F 43% 30.03 in 10.0 mi SSE 5.8 mph - N/A   Clear
11:35 PM 69.8 °F 44.6 °F 40% 30.02 in 10.0 mi SE 4.6 mph - N/A   Clear
11:55 PM 68.0 °F 44.6 °F 43% 30.02 in 10.0 mi SSE 5.8 mph - N/A   Clear